INTELSAT 33E DEB, 64399

Orbit data source: Space-Track

INTELSAT 33E DEB, 64399 is space debris in GEO originally from a launch on Wed, 24 Aug 2016 UTC launched from the French Guiana (FRGUI). Debris objects in space refer to the collection of defunct objects orbiting the Earth. Examples of debris include non-operational satellites, rocket bodies, and fragments generated from explosions, collisions, or faulty payload assembly.

Not visible in the next 10 days
Identifier
64399, 2016-053AD
Orbit
GEO
Country
Flag of UnknownUnknown / ITSO
Related business
Manufacturer
Boeing/ES
Mission
Spacecraft
Bus & Motor
Unknown
Mass
Unknown
Launch date (UTC)
2016-08-24 (9 years ago)
Launch vehicle
Unknown
Launch site
French Guiana (FRGUI)
Object type
Payload
Rocket body
Debris
Shape & HBR
Unknown shape, 1.1 m
Radar Cross Section
RCS unknown

Expand to show TLE details & history
Last TLE update: 1 day ago

TLE from 1 day ago
0 INTELSAT 33E DEB
1 64399U 16053AD  25339.86351725 -.00000044  00000-0  00000-0 0  9994
2 64399   1.1423  54.0267 0073226 293.8330  64.1198  0.98827630  3911
Epoch: 2025-12-05T20:43Z
TLE epoch observation values (Epoch: 2025-12-05T20:43:27.890Z)
Latitude
Longitude
26.95338°
Altitude
36,062.03 km
Speed
3.07 km/s
True Right ascension
03h 30m 52s
True Declination
0° 00' 00"
Sunlit
Object was in daylight at epoch
Visualization orbit readout
Latitude
Unknown
Longitude
Unknown
Altitude
Unknown
Speed
Unknown
Apparent Right ascension
Unknown
Apparent Declination
Unknown
Sunlit
N/A
Visualization observer readout
Local Sidereal Time
03:27:40
Azimuth
Unknown
Elevation
Unknown
Doppler factor
Unknown
Orbital elements
Apogee altitude
36,509.19 km
Perigee altitude
35,885.662 km
Semi-major axis
42,575.563 km
Eccentricity
0.00732
Inclination
1.1423°
RAAN
54.0267°
Arg. of periapsis
293.833°
True anomaly
64.87776°
Mean anomaly
64.1198°
Eccentric anomaly
64.49848°
Mean motion
0.24706 °/min
Orbital period
1,457.14 mins
BSTAR
0
Loading maneuver chart data...
Computing Atmospheric mass density...
Loading historical data...
Loading historical data...
Loading historical data...
Loading historical data...
Loading historical data...
Loading historical data...
Loading historical data...

Documentation

Showing up to 5 results
|